,,Stat5,,Stat1,,Stat2,,Stat3,,Stat4,,Wind1,,Wind1,
time,status,PA1M_AVG,status,PR1M_SUM,status,RH1M_AVG,status,SR1M_AVG,status,TA1M_AVG,status,W1dAve1m,status,W1sAve1m,
2002-05-19, 00:00:01,VALID,918.636,VALID,0,VALID,99.3937,VALID,-0.0849042,VALID,20.403,VALID,76,VALID,0.432589,
2002-05-19, 00:01:00,VALID,918.616,VALID,0,VALID,99.3873,VALID,-0.101885,VALID,20.3868,VALID,87,VALID,0.441907,
2002-05-19, 00:02:00,VALID,918.615,VALID,0,VALID,99.3912,VALID,-0.101885,VALID,20.3674,VALID,90,VALID,0.594367,
2002-05-19, 00:03:00,VALID,918.598,VALID,0,VALID,99.3848,VALID,-0.118866,VALID,20.3545,VALID,91,VALID,0.414885,
2002-05-19, 00:04:00,VALID,918.601,VALID,0,VALID,99.3912,VALID,-0.101885,VALID,20.3707,VALID,127,VALID,0.447321,
2002-05-19, 00:05:00,VALID,918.581,VALID,0,VALID,99.3823,VALID,-0.101885,VALID,20.3707,VALID,132,VALID,0.316506,
2002-05-19, 00:06:00,VALID,918.56,VALID,0,VALID,99.3899,VALID,-0.101885,VALID,20.3766,VALID,118,VALID,0.474669,
2002-05-19, 00:07:00,VALID,918.546,VALID,0,VALID,99.3848,VALID,-0.0849042,VALID,20.3709,VALID,105,VALID,0.343099,
2002-05-19, 00:08:00,VALID,918.543,VALID,0,VALID,99.3873,VALID,-0.101885,VALID,20.3806,VALID,89,VALID,0.450658,
2002-05-19, 00:09:00,VALID,918.533,VALID,0,VALID,99.3912,VALID,-0.0169808,VALID,20.4025,VALID,79,VALID,0.371875,
2002-05-19, 00:10:00,VALID,918.529,VALID,0,VALID,99.3886,VALID,0,VALID,20.4437,VALID,63,VALID,0.426758,
2002-05-19, 00:11:00,VALID,918.524,VALID,0,VALID,99.3848,VALID,0.0169808,VALID,20.4337,VALID,54,VALID,0.369575,
2002-05-19, 00:12:00,VALID,918.523,VALID,0,VALID,99.3899,VALID,0,VALID,20.4268,VALID,55,VALID,0.438368,
2002-05-19, 00:13:00,VALID,918.519,VALID,0,VALID,99.3873,VALID,0,VALID,20.4138,VALID,62,VALID,0.349724,
2002-05-19, 00:14:00,VALID,918.51,VALID,0,VALID,99.3975,VALID,0,VALID,20.4434,VALID,66,VALID,0.345759,
2002-05-19, 00:15:00,VALID,918.522,VALID,0,VALID,99.3861,VALID,0,VALID,20.4014,VALID,71,VALID,0.272837,
2002-05-19, 00:16:00,VALID,918.533,VALID,0,VALID,99.3962,VALID,0.0339617,VALID,20.3888,VALID,71,VALID,0.212891,
2002-05-19, 00:17:00,VALID,918.527,VALID,0,VALID,99.3975,VALID,-0.0169808,VALID,20.3656,VALID,71,VALID,0.0176809,
2002-05-19, 00:18:00,VALID,918.538,VALID,0,VALID,99.3924,VALID,0,VALID,20.3952,VALID,70,VALID,0.243527,
2002-05-19, 00:19:00,VALID,918.541,VALID,0,VALID,99.3912,VALID,0,VALID,20.437,VALID,66,VALID,0.457332,
2002-05-19, 00:20:00,VALID,918.546,VALID,0,VALID,99.3912,VALID,0.0169808,VALID,20.4397,VALID,43,VALID,0.580492,
2002-05-19, 00:21:00,VALID,918.538,VALID,0,VALID,99.3899,VALID,0,VALID,20.4564,VALID,38,VALID,0.537977,
2002-05-19, 00:22:00,VALID,918.53,VALID,0,VALID,99.3962,VALID,0.0169808,VALID,20.4502,VALID,31,VALID,0.503084,
2002-05-19, 00:23:00,VALID,918.521,VALID,0,VALID,99.4013,VALID,-0.0169808,VALID,20.4434,VALID,46,VALID,0.569311,
2002-05-19, 00:24:00,VALID,918.502,VALID,0,VALID,99.3899,VALID,-0.0509425,VALID,20.4504,VALID,34,VALID,0.545898,
2002-05-19, 00:25:00,VALID,918.486,VALID,0,VALID,99.395,VALID,-0.0849042,VALID,20.4738,VALID,9,VALID,0.537277,
2002-05-19, 00:26:00,VALID,918.463,VALID,0,VALID,99.3899,VALID,-0.0679233,VALID,20.5258,VALID,28,VALID,0.412584,
2002-05-19, 00:27:00,VALID,918.448,VALID,0,VALID,99.3861,VALID,-0.101885,VALID,20.5225,VALID,20,VALID,0.316636,
2002-05-19, 00:28:00,VALID,918.424,VALID,0,VALID,99.3835,VALID,-0.0339617,VALID,20.4996,VALID,1,VALID,0.24375,
2002-05-19, 00:29:00,VALID,918.404,VALID,0,VALID,99.3924,VALID,-0.0339617,VALID,20.4832,VALID,1,VALID,0.232171,
2002-05-19, 00:30:00,VALID,918.408,VALID,0,VALID,99.3988,VALID,-0.0509425,VALID,20.438,VALID,1,VALID,0.21072,
2002-05-19, 00:31:00,VALID,918.389,VALID,0,VALID,99.3962,VALID,-0.0509425,VALID,20.3955,VALID,1,VALID,0,
2002-05-19, 00:32:00,VALID,918.374,VALID,0,VALID,99.409,VALID,-0.0339617,VALID,20.3868,VALID,1,VALID,0,
2002-05-19, 00:33:00,VALID,918.37,VALID,0,VALID,99.4115,VALID,-0.0849042,VALID,20.3771,VALID,1,VALID,0,
2002-05-19, 00:34:00,VALID,918.367,VALID,0,VALID,99.3937,VALID,-0.0849042,VALID,20.3861,VALID,95,VALID,0.154356,
2002-05-19, 00:35:00,VALID,918.339,VALID,0,VALID,99.409,VALID,-0.0679233,VALID,20.3901,VALID,136,VALID,0.343533,
2002-05-19, 00:36:00,VALID,918.363,VALID,0,VALID,99.4077,VALID,-0.0509425,VALID,20.4,VALID,140,VALID,0.345395,
2002-05-19, 00:37:00,VALID,918.368,VALID,0,VALID,99.4026,VALID,-0.0679233,VALID,20.3933,VALID,131,VALID,0.433398,
2002-05-19, 00:38:00,VALID,918.382,VALID,0,VALID,99.4026,VALID,-0.0679233,VALID,20.3545,VALID,96,VALID,0.42168,
2002-05-19, 00:39:00,VALID,918.391,VALID,0,VALID,99.4064,VALID,-0.0169808,VALID,20.3341,VALID,82,VALID,0.248915,
2002-05-19, 00:40:00,VALID,918.416,VALID,0,VALID,99.4064,VALID,0.0679233,VALID,20.3495,VALID,63,VALID,0.544488,
2002-05-19, 00:41:00,VALID,918.436,VALID,0,VALID,99.3937,VALID,0,VALID,20.3142,VALID,63,VALID,0.412454,
2002-05-19, 00:42:00,VALID,918.441,VALID,0,VALID,99.4039,VALID,0.0509425,VALID,20.2749,VALID,63,VALID,0.0970982,
2002-05-19, 00:43:00,VALID,918.431,VALID,0,VALID,99.409,VALID,0,VALID,20.2754,VALID,60,VALID,0.241787,
2002-05-19, 00:44:00,VALID,918.429,VALID,0,VALID,99.414,VALID,0.0339617,VALID,20.3239,VALID,60,VALID,0.220486,
2002-05-19, 00:45:00,VALID,918.388,VALID,0,VALID,99.409,VALID,0.0509425,VALID,20.3592,VALID,59,VALID,0.231086,
2002-05-19, 00:46:00,VALID,918.359,VALID,0,VALID,99.4051,VALID,0.0339617,VALID,20.4014,VALID,59,VALID,0.248437,
2002-05-19, 00:47:00,VALID,918.325,VALID,0,VALID,99.4115,VALID,0.0679233,VALID,20.3982,VALID,58,VALID,0.165465,
2002-05-19, 00:48:00,VALID,918.288,VALID,0,VALID,99.4064,VALID,0.0679233,VALID,20.3915,VALID,58,VALID,0.0653409,
2002-05-19, 00:49:00,VALID,918.265,VALID,0,VALID,99.4115,VALID,0.0509425,VALID,20.3557,VALID,58,VALID,0.292318,
2002-05-19, 00:50:00,VALID,918.248,VALID,0,VALID,99.4077,VALID,0.0849042,VALID,20.339,VALID,58,VALID,0.496505,
2002-05-19, 00:51:00,VALID,918.219,VALID,0,VALID,99.4153,VALID,0.0849042,VALID,20.3363,VALID,56,VALID,0.510617,
2002-05-19, 00:52:00,VALID,918.203,VALID,0,VALID,99.4051,VALID,0.101885,VALID,20.3388,VALID,42,VALID,0.536719,
2002-05-19, 00:53:00,VALID,918.206,VALID,0,VALID,99.4077,VALID,0.0679233,VALID,20.3748,VALID,20,VALID,0.570759,
2002-05-19, 00:54:00,VALID,918.187,VALID,0,VALID,99.4077,VALID,0,VALID,20.3923,VALID,20,VALID,0.64886,
2002-05-19, 00:55:00,VALID,918.159,VALID,0,VALID,99.4039,VALID,-0.0679233,VALID,20.4127,VALID,18,VALID,0.771599,
2002-05-19, 00:56:00,VALID,918.158,VALID,0,VALID,99.4115,VALID,-0.0679233,VALID,20.406,VALID,20,VALID,0.892634,
2002-05-19, 00:57:00,VALID,918.136,VALID,0,VALID,99.4128,VALID,-0.0509425,VALID,20.3543,VALID,22,VALID,0.978766,
2002-05-19, 00:58:00,VALID,918.123,VALID,0,VALID,99.4115,VALID,0,VALID,20.2988,VALID,21,VALID,1.19054,
2002-05-19, 00:59:00,VALID,918.103,VALID,0,VALID,99.414,VALID,-0.0679233,VALID,20.2641,VALID,22,VALID,1.1433,
2002-05-19, 01:00:00,VALID,918.081,VALID,0,VALID,99.4242,VALID,-0.0509425,VALID,20.2476,VALID,15,VALID,1.45402,
2002-05-19, 01:01:01,VALID,918.07,VALID,0,VALID,99.4191,VALID,-0.0849042,VALID,20.2452,VALID,16,VALID,1.27764,
2002-05-19, 01:02:00,VALID,918.055,VALID,0,VALID,99.4268,VALID,-0.0679233,VALID,20.2161,VALID,14,VALID,1.32008,
2002-05-19, 01:03:00,VALID,918.044,VALID,0,VALID,99.4357,VALID,-0.0339617,VALID,20.1932,VALID,25,VALID,1.26389,
2002-05-19, 01:04:00,VALID,918.017,VALID,0,VALID,99.4306,VALID,-0.0339617,VALID,20.1706,VALID,46,VALID,0.835115,
2002-05-19, 01:05:00,VALID,917.982,VALID,0,VALID,99.4344,VALID,-0.101885,VALID,20.1639,VALID,61,VALID,0.795703,
2002-05-19, 01:06:00,VALID,917.966,VALID,0,VALID,99.4293,VALID,-0.0849042,VALID,20.1475,VALID,67,VALID,0.624414,
2002-05-19, 01:07:00,VALID,917.956,VALID,0,VALID,99.4382,VALID,-0.0849042,VALID,20.112,VALID,83,VALID,0.792752,
2002-05-19, 01:08:00,VALID,917.926,VALID,0,VALID,99.442,VALID,-0.0339617,VALID,20.0737,VALID,48,VALID,0.878255,
2002-05-19, 01:09:00,VALID,917.901,VALID,0,VALID,99.4458,VALID,-0.0849042,VALID,20.0764,VALID,75,VALID,0.641085,
2002-05-19, 01:10:00,VALID,917.893,VALID,0,VALID,99.4535,VALID,-0.0169808,VALID,20.0444,VALID,103,VALID,0.995759,
2002-05-19, 01:11:01,VALID,917.874,VALID,0,VALID,99.456,VALID,-0.0339617,VALID,20.0379,VALID,108,VALID,0.761619,
2002-05-19, 01:12:00,VALID,917.848,VALID,0,VALID,99.4636,VALID,-0.0679233,VALID,20.0414,VALID,126,VALID,0.398655,
2002-05-19, 01:13:00,VALID,917.823,VALID,0,VALID,99.4585,VALID,-0.0679233,VALID,20.0608,VALID,127,VALID,0.474507,
2002-05-19, 01:14:00,VALID,917.825,VALID,0,VALID,99.4547,VALID,-0.0679233,VALID,20.0707,VALID,135,VALID,0.596205,
2002-05-19, 01:15:00,VALID,917.825,VALID,0,VALID,99.4496,VALID,-0.0679233,VALID,20.0702,VALID,103,VALID,0.503005,
2002-05-19, 01:16:00,VALID,917.826,VALID,0,VALID,99.4535,VALID,-0.0849042,VALID,20.0831,VALID,66,VALID,0.491951,
2002-05-19, 01:17:00,VALID,917.809,VALID,0,VALID,99.4649,VALID,-0.0679233,VALID,20.0764,VALID,82,VALID,0.488064,
2002-05-19, 01:18:00,VALID,917.803,VALID,0,VALID,99.456,VALID,-0.0849042,VALID,20.0603,VALID,110,VALID,0.552837,
2002-05-19, 01:19:00,VALID,917.798,VALID,0,VALID,99.4484,VALID,-0.0339617,VALID,20.0446,VALID,81,VALID,0.622196,
2002-05-19, 01:20:00,VALID,917.78,VALID,0,VALID,99.4598,VALID,0,VALID,20.0411,VALID,78,VALID,0.786328,
2002-05-19, 01:21:00,VALID,917.768,VALID,0,VALID,99.4598,VALID,-0.0679233,VALID,20.0183,VALID,83,VALID,0.812277,
2002-05-19, 01:22:00,VALID,917.755,VALID,0,VALID,99.4624,VALID,-0.0339617,VALID,20.0193,VALID,68,VALID,0.717272,
2002-05-19, 01:23:00,VALID,917.733,VALID,0,VALID,99.4624,VALID,-0.0849042,VALID,20.029,VALID,59,VALID,0.792279,
2002-05-19, 01:24:00,VALID,917.702,VALID,0,VALID,99.4675,VALID,-0.0169808,VALID,20.021,VALID,65,VALID,0.824777,
2002-05-19, 01:25:00,VALID,917.68,VALID,0,VALID,99.4585,VALID,0,VALID,20.018,VALID,69,VALID,0.878606,
2002-05-19, 01:26:00,VALID,917.621,VALID,0,VALID,99.4675,VALID,-0.0339617,VALID,20.0019,VALID,80,VALID,0.907986,
2002-05-19, 01:27:01,VALID,917.588,VALID,0,VALID,99.4713,VALID,-0.0169808,VALID,19.9726,VALID,88,VALID,0.702714,
2002-05-19, 01:28:00,VALID,917.558,VALID,0,VALID,99.4573,VALID,0,VALID,19.9634,VALID,77,VALID,0.619196,
2002-05-19, 01:29:01,VALID,917.557,VALID,0,VALID,99.4687,VALID,-0.0169808,VALID,19.9688,VALID,48,VALID,0.751402,
2002-05-19, 01:30:00,VALID,917.544,VALID,0,VALID,99.4624,VALID,0,VALID,19.9594,VALID,78,VALID,0.893466,
2002-05-19, 01:31:00,VALID,917.542,VALID,0,VALID,99.4649,VALID,-0.0169808,VALID,19.9368,VALID,71,VALID,0.66276,
2002-05-19, 01:32:00,VALID,917.562,VALID,0,VALID,99.4789,VALID,0,VALID,19.9435,VALID,62,VALID,0.757607,
2002-05-19, 01:33:00,VALID,917.574,VALID,0,VALID,99.4776,VALID,-0.0169808,VALID,19.9209,VALID,47,VALID,0.450586,
2002-05-19, 01:34:00,VALID,917.591,VALID,0,VALID,99.4713,VALID,0,VALID,19.9179,VALID,46,VALID,0.168164,
2002-05-19, 01:35:00,VALID,917.605,VALID,0,VALID,99.4751,VALID,0,VALID,19.9306,VALID,46,VALID,0.149523,
2002-05-19, 01:36:00,VALID,917.62,VALID,0,VALID,99.4713,VALID,-0.0509425,VALID,19.9273,VALID,46,VALID,0.0115017,
2002-05-19, 01:37:00,VALID,917.621,VALID,0,VALID,99.4776,VALID,-0.0169808,VALID,19.9276,VALID,45,VALID,0,
2002-05-19, 01:38:00,VALID,917.623,VALID,0,VALID,99.4853,VALID,-0.0169808,VALID,19.9345,VALID,46,VALID,0,
2002-05-19, 01:39:01,VALID,917.605,VALID,0,VALID,99.4802,VALID,0,VALID,19.9338,VALID,45,VALID,0,
2002-05-19, 01:40:00,VALID,917.607,VALID,0,VALID,99.4776,VALID,-0.0169808,VALID,19.94,VALID,46,VALID,0.103516,
2002-05-19, 01:41:01,VALID,917.587,VALID,0,VALID,99.4764,VALID,0,VALID,19.9601,VALID,136,VALID,0.652549,
2002-05-19, 01:42:00,VALID,917.585,VALID,0,VALID,99.4814,VALID,-0.0339617,VALID,19.892,VALID,174,VALID,0.85,
2002-05-19, 01:43:00,VALID,917.566,VALID,0,VALID,99.4853,VALID,-0.0339617,VALID,19.811,VALID,170,VALID,0.637821,
2002-05-19, 01:44:00,VALID,917.552,VALID,0,VALID,99.4903,VALID,-0.0339617,VALID,19.7695,VALID,173,VALID,0.404356,
2002-05-19, 01:45:00,VALID,917.529,VALID,0,VALID,99.4916,VALID,0,VALID,19.7365,VALID,181,VALID,0.345052,
2002-05-19, 01:46:00,VALID,917.512,VALID,0,VALID,99.4929,VALID,-0.0169808,VALID,19.7206,VALID,192,VALID,0.364104,
2002-05-19, 01:47:00,VALID,917.498,VALID,0,VALID,99.5018,VALID,-0.0169808,VALID,19.7049,VALID,220,VALID,0.241587,
2002-05-19, 01:48:01,VALID,917.49,VALID,0,VALID,99.4992,VALID,0,VALID,19.7112,VALID,188,VALID,0.204297,
2002-05-19, 01:49:00,VALID,917.471,VALID,0,VALID,99.4942,VALID,-0.0169808,VALID,19.6923,VALID,164,VALID,0.448191,
2002-05-19, 01:50:00,VALID,917.466,VALID,0,VALID,99.512,VALID,0,VALID,19.6791,VALID,168,VALID,0.485853,
2002-05-19, 01:51:00,VALID,917.465,VALID,0,VALID,99.5107,VALID,-0.0169808,VALID,19.6724,VALID,171,VALID,0.369026,
2002-05-19, 01:52:00,VALID,917.47,VALID,0,VALID,99.5005,VALID,-0.0169808,VALID,19.6791,VALID,171,VALID,0.0948661,
2002-05-19, 01:53:00,VALID,917.47,VALID,0,VALID,99.5094,VALID,-0.0169808,VALID,19.7047,VALID,147,VALID,0.289263,
2002-05-19, 01:54:00,VALID,917.476,VALID,0,VALID,99.5056,VALID,0,VALID,19.7047,VALID,90,VALID,0.331163,
2002-05-19, 01:55:01,VALID,917.479,VALID,0,VALID,99.5107,VALID,0,VALID,19.7407,VALID,46,VALID,0.210732,
2002-05-19, 01:56:01,VALID,917.472,VALID,0,VALID,99.5018,VALID,0,VALID,19.7561,VALID,40,VALID,0,
2002-05-19, 01:57:01,VALID,917.488,VALID,0,VALID,99.5132,VALID,0,VALID,19.7596,VALID,40,VALID,0.00140224,
2002-05-19, 01:58:00,VALID,917.464,VALID,0,VALID,99.4992,VALID,0,VALID,19.773,VALID,40,VALID,0.0693655,
2002-05-19, 01:59:00,VALID,917.458,VALID,0,VALID,99.5107,VALID,-0.0169808,VALID,19.7728,VALID,40,VALID,0.0907118,
2002-05-19, 02:00:00,VALID,917.432,VALID,0,VALID,99.5081,VALID,-0.0169808,VALID,19.779,VALID,40,VALID,0,
2002-05-19, 02:01:00,VALID,917.408,VALID,0,VALID,99.5069,VALID,0,VALID,19.7989,VALID,61,VALID,0.196094,
2002-05-19, 02:02:00,VALID,917.383,VALID,0,VALID,99.512,VALID,-0.0169808,VALID,19.7919,VALID,110,VALID,0.333594,
2002-05-19, 02:03:00,VALID,917.379,VALID,0,VALID,99.5132,VALID,-0.0169808,VALID,19.7787,VALID,100,VALID,0.53342,
2002-05-19, 02:04:01,VALID,917.361,VALID,0,VALID,99.512,VALID,0,VALID,19.7529,VALID,92,VALID,0.705729,
2002-05-19, 02:05:00,VALID,917.348,VALID,0,VALID,99.5094,VALID,0.0169808,VALID,19.7037,VALID,90,VALID,0.798254,
2002-05-19, 02:06:00,VALID,917.347,VALID,0,VALID,99.5069,VALID,0,VALID,19.6945,VALID,99,VALID,0.752232,
2002-05-19, 02:07:01,VALID,917.338,VALID,0,VALID,99.5183,VALID,0.0169808,VALID,19.7015,VALID,106,VALID,0.790865,
2002-05-19, 02:08:00,VALID,917.352,VALID,0,VALID,99.5196,VALID,0,VALID,19.6908,VALID,120,VALID,0.798394,
2002-05-19, 02:09:01,VALID,917.334,VALID,0,VALID,99.5247,VALID,0.0169808,VALID,19.7144,VALID,129,VALID,0.600535,
2002-05-19, 02:10:00,VALID,917.325,VALID,0,VALID,99.5209,VALID,0,VALID,19.7238,VALID,122,VALID,0.634598,
2002-05-19, 02:11:00,VALID,917.303,VALID,0,VALID,99.5196,VALID,0,VALID,19.737,VALID,87,VALID,0.34996,
2002-05-19, 02:12:01,VALID,917.288,VALID,0,VALID,99.5221,VALID,-0.0169808,VALID,19.7402,VALID,100,VALID,0.369555,
2002-05-19, 02:13:00,VALID,917.269,VALID,0,VALID,99.5132,VALID,-0.0169808,VALID,19.7405,VALID,122,VALID,0.580512,
2002-05-19, 02:14:00,VALID,917.242,VALID,0,VALID,99.5145,VALID,0,VALID,19.7074,VALID,127,VALID,0.386513,
2002-05-19, 02:15:00,VALID,917.241,VALID,0,VALID,99.5209,VALID,0,VALID,19.6883,VALID,102,VALID,0.497196,
2002-05-19, 02:16:01,VALID,917.215,VALID,0,VALID,99.5247,VALID,0,VALID,19.6533,VALID,86,VALID,0.724414,
2002-05-19, 02:17:00,VALID,917.21,VALID,0,VALID,99.5259,VALID,0,VALID,19.6297,VALID,114,VALID,0.544866,
2002-05-19, 02:18:01,VALID,917.198,VALID,0,VALID,99.5361,VALID,0.0169808,VALID,19.6237,VALID,140,VALID,0.492821,
2002-05-19, 02:19:00,VALID,917.181,VALID,0,VALID,99.5348,VALID,0,VALID,19.6175,VALID,137,VALID,0.578814,
2002-05-19, 02:20:00,VALID,917.173,VALID,0,VALID,99.5285,VALID,0,VALID,19.6145,VALID,138,VALID,0.489732,
2002-05-19, 02:21:00,VALID,917.164,VALID,0,VALID,99.5323,VALID,0,VALID,19.5822,VALID,139,VALID,0.623397,
2002-05-19, 02:22:00,VALID,917.154,VALID,0,VALID,99.5348,VALID,-0.0339617,VALID,19.5725,VALID,131,VALID,0.425347,
2002-05-19, 02:23:01,VALID,917.129,VALID,0,VALID,99.5437,VALID,-0.0169808,VALID,19.5472,VALID,135,VALID,0.546875,
2002-05-19, 02:24:00,VALID,917.117,VALID,0,VALID,99.5514,VALID,0,VALID,19.5305,VALID,112,VALID,0.533259,
2002-05-19, 02:25:01,VALID,917.094,VALID,0,VALID,99.5463,VALID,0,VALID,19.5335,VALID,106,VALID,0.432893,
2002-05-19, 02:26:00,VALID,917.072,VALID,0,VALID,99.5374,VALID,0,VALID,19.5559,VALID,143,VALID,0.375473,
2002-05-19, 02:27:00,VALID,917.062,VALID,0,VALID,99.5437,VALID,0,VALID,19.5688,VALID,141,VALID,0.447917,
2002-05-19, 02:28:01,VALID,917.062,VALID,0,VALID,99.5476,VALID,-0.0169808,VALID,19.5693,VALID,146,VALID,0.597862,
2002-05-19, 02:29:00,VALID,917.061,VALID,0,VALID,99.5437,VALID,-0.0169808,VALID,19.5534,VALID,133,VALID,0.766406,
2002-05-19, 02:30:00,VALID,917.049,VALID,0,VALID,99.5412,VALID,0,VALID,19.5434,VALID,138,VALID,0.87168,
2002-05-19, 02:31:00,VALID,917.059,VALID,0,VALID,99.5348,VALID,0,VALID,19.5305,VALID,130,VALID,0.881944,
2002-05-19, 02:32:00,VALID,917.062,VALID,0,VALID,99.5476,VALID,0,VALID,19.5273,VALID,91,VALID,0.333116,
2002-05-19, 02:33:00,VALID,917.054,VALID,0,VALID,99.5488,VALID,0,VALID,19.5206,VALID,145,VALID,0.983226,
2002-05-19, 02:34:00,VALID,917.045,VALID,0,VALID,99.5437,VALID,0,VALID,19.498,VALID,146,VALID,0.936384,
2002-05-19, 02:35:01,VALID,917.033,VALID,0,VALID,99.5501,VALID,0,VALID,19.4724,VALID,138,VALID,1.21575,
2002-05-19, 02:36:00,VALID,917.016,VALID,0,VALID,99.5577,VALID,0,VALID,19.4493,VALID,147,VALID,1.84744,
2002-05-19, 02:37:00,VALID,916.997,VALID,0,VALID,99.5603,VALID,0,VALID,19.4433,VALID,148,VALID,1.68565,
2002-05-19, 02:38:00,VALID,916.974,VALID,0,VALID,99.5552,VALID,0,VALID,19.4237,VALID,146,VALID,1.86875,
2002-05-19, 02:39:01,VALID,916.951,VALID,0,VALID,99.5514,VALID,0,VALID,19.4242,VALID,149,VALID,1.58053,
2002-05-19, 02:40:00,VALID,916.952,VALID,0,VALID,99.5539,VALID,0,VALID,19.4016,VALID,154,VALID,1.29096,
2002-05-19, 02:41:00,VALID,916.944,VALID,0,VALID,99.5527,VALID,0,VALID,19.3921,VALID,158,VALID,1.10742,
2002-05-19, 02:42:01,VALID,916.911,VALID,0,VALID,99.5654,VALID,0,VALID,19.3757,VALID,136,VALID,0.95477,
2002-05-19, 02:43:00,VALID,916.907,VALID,0,VALID,99.5552,VALID,-0.0169808,VALID,19.3628,VALID,142,VALID,1.13682,
2002-05-19, 02:44:00,VALID,916.892,VALID,0,VALID,99.5565,VALID,-0.0339617,VALID,19.3429,VALID,114,VALID,0.832617,
2002-05-19, 02:45:00,VALID,916.885,VALID,0,VALID,99.5616,VALID,-0.0169808,VALID,19.3375,VALID,103,VALID,0.855804,
2002-05-19, 02:46:00,VALID,916.871,VALID,0,VALID,99.5666,VALID,-0.0169808,VALID,19.2952,VALID,121,VALID,0.93391,
2002-05-19, 02:47:01,VALID,916.859,VALID,0,VALID,99.5603,VALID,0,VALID,19.2823,VALID,108,VALID,0.654182,
2002-05-19, 02:48:00,VALID,916.854,VALID,0,VALID,99.5679,VALID,0,VALID,19.2525,VALID,108,VALID,1.14219,
2002-05-19, 02:49:01,VALID,916.849,VALID,0,VALID,99.573,VALID,-0.0339617,VALID,19.2145,VALID,89,VALID,0.994191,
2002-05-19, 02:50:01,VALID,916.84,VALID,0,VALID,99.5768,VALID,0,VALID,19.2078,VALID,85,VALID,0.957031,
2002-05-19, 02:51:01,VALID,916.832,VALID,0,VALID,99.5755,VALID,0,VALID,19.1951,VALID,95,VALID,1.12109,
2002-05-19, 02:52:00,VALID,916.828,VALID,0,VALID,99.5755,VALID,-0.0169808,VALID,19.1723,VALID,78,VALID,0.78817,
2002-05-19, 02:53:01,VALID,916.823,VALID,0,VALID,99.5768,VALID,0,VALID,19.1529,VALID,86,VALID,0.765625,
2002-05-19, 02:54:00,VALID,916.819,VALID,0,VALID,99.5883,VALID,0,VALID,19.1367,VALID,85,VALID,0.50947,
2002-05-19, 02:55:00,VALID,916.807,VALID,0,VALID,99.587,VALID,-0.0169808,VALID,19.134,VALID,88,VALID,0.671007,
2002-05-19, 02:56:01,VALID,916.798,VALID,0,VALID,99.5781,VALID,-0.0339617,VALID,19.1119,VALID,90,VALID,0.584293,
2002-05-19, 02:57:01,VALID,916.793,VALID,0,VALID,99.5972,VALID,-0.0169808,VALID,19.0818,VALID,105,VALID,0.580469,
2002-05-19, 02:58:01,VALID,916.772,VALID,0,VALID,99.5959,VALID,0,VALID,19.0592,VALID,113,VALID,0.644141,
2002-05-19, 02:59:01,VALID,916.763,VALID,0,VALID,99.5921,VALID,0,VALID,19.0299,VALID,107,VALID,0.983073,
2002-05-19, 03:00:01,VALID,916.757,VALID,0,VALID,99.5984,VALID,0,VALID,19.0113,VALID,95,VALID,1.07661,
2002-05-19, 03:01:01,VALID,916.746,VALID,0,VALID,99.5933,VALID,0,VALID,18.982,VALID,94,VALID,1.03631,
2002-05-19, 03:02:01,VALID,916.743,VALID,0,VALID,99.6022,VALID,0,VALID,18.9623,VALID,101,VALID,1.12612,
2002-05-19, 03:03:01,VALID,916.733,VALID,0,VALID,99.5997,VALID,-0.0169808,VALID,18.9561,VALID,91,VALID,0.998197,
2002-05-19, 03:04:01,VALID,916.74,VALID,0,VALID,99.6061,VALID,-0.0169808,VALID,18.9236,VALID,101,VALID,1.09028,
2002-05-19, 03:05:01,VALID,916.742,VALID,0,VALID,99.6188,VALID,0,VALID,18.8851,VALID,106,VALID,0.865748,
2002-05-19, 03:06:01,VALID,916.742,VALID,0,VALID,99.6124,VALID,-0.0339617,VALID,18.856,VALID,117,VALID,0.709821,
2002-05-19, 03:07:01,VALID,916.732,VALID,0,VALID,99.6124,VALID,0,VALID,18.8239,VALID,141,VALID,0.820112,
2002-05-19, 03:08:01,VALID,916.719,VALID,0,VALID,99.6111,VALID,-0.0169808,VALID,18.7882,VALID,149,VALID,1.10085,
2002-05-19, 03:09:01,VALID,916.71,VALID,0,VALID,99.6213,VALID,-0.0509425,VALID,18.7924,VALID,151,VALID,1.13325,
2002-05-19, 03:10:01,VALID,916.686,VALID,0,VALID,99.6264,VALID,-0.118866,VALID,18.8152,VALID,163,VALID,0.714227,
2002-05-19, 03:11:01,VALID,916.685,VALID,0,VALID,99.6137,VALID,-0.118866,VALID,18.8351,VALID,145,VALID,0.913462,
2002-05-19, 03:12:01,VALID,916.673,VALID,0,VALID,99.6188,VALID,-0.101885,VALID,18.8353,VALID,138,VALID,1.03652,
2002-05-19, 03:13:01,VALID,916.673,VALID,0,VALID,99.6213,VALID,-0.118866,VALID,18.8258,VALID,109,VALID,0.55558,
2002-05-19, 03:14:01,VALID,916.667,VALID,0,VALID,99.6264,VALID,-0.118866,VALID,18.8229,VALID,111,VALID,0.699324,
2002-05-19, 03:15:00,VALID,916.656,VALID,0,VALID,99.634,VALID,-0.101885,VALID,18.8065,VALID,112,VALID,1.14338,
2002-05-19, 03:16:00,VALID,916.66,VALID,0,VALID,99.6366,VALID,-0.101885,VALID,18.7873,VALID,109,VALID,1.25112,
2002-05-19, 03:17:00,VALID,916.651,VALID,0,VALID,99.6366,VALID,-0.118866,VALID,18.7843,VALID,104,VALID,1.42087,
2002-05-19, 03:18:00,VALID,916.638,VALID,0,VALID,99.6442,VALID,-0.118866,VALID,18.7938,VALID,85,VALID,0.973524,
2002-05-19, 03:19:00,VALID,916.641,VALID,0,VALID,99.6302,VALID,-0.118866,VALID,18.8166,VALID,82,VALID,1.26953,
2002-05-19, 03:20:00,VALID,916.635,VALID,0,VALID,99.6442,VALID,-0.118866,VALID,18.83,VALID,73,VALID,1.57924,
2002-05-19, 03:21:00,VALID,916.611,VALID,0,VALID,99.6417,VALID,-0.152827,VALID,18.8035,VALID,72,VALID,1.2512,
2002-05-19, 03:22:00,VALID,916.603,VALID,0,VALID,99.6353,VALID,-0.118866,VALID,18.7806,VALID,73,VALID,0.974905,
2002-05-19, 03:23:00,VALID,916.601,VALID,0,VALID,99.6366,VALID,-0.101885,VALID,18.7386,VALID,79,VALID,0.864149,
2002-05-19, 03:24:00,VALID,916.585,VALID,0,VALID,99.6404,VALID,-0.118866,VALID,18.7287,VALID,78,VALID,0.697163,
2002-05-19, 03:25:00,VALID,916.576,VALID,0,VALID,99.6506,VALID,-0.118866,VALID,18.6999,VALID,88,VALID,0.775391,
2002-05-19, 03:26:00,VALID,916.564,VALID,0,VALID,99.6429,VALID,-0.118866,VALID,18.7034,VALID,85,VALID,0.729688,
2002-05-19, 03:27:00,VALID,916.573,VALID,0,VALID,99.6493,VALID,-0.135847,VALID,18.6775,VALID,96,VALID,0.65191,
2002-05-19, 03:28:00,VALID,916.549,VALID,0,VALID,99.648,VALID,-0.152827,VALID,18.6614,VALID,78,VALID,0.892795,
2002-05-19, 03:29:00,VALID,916.558,VALID,0,VALID,99.6455,VALID,-0.135847,VALID,18.6584,VALID,68,VALID,0.959099,
2002-05-19, 03:30:00,VALID,916.562,VALID,0,VALID,99.6569,VALID,-0.118866,VALID,18.6487,VALID,62,VALID,0.76942,
2002-05-19, 03:31:00,VALID,916.553,VALID,0,VALID,99.6607,VALID,-0.152827,VALID,18.6261,VALID,63,VALID,0.881611,
2002-05-19, 03:32:00,VALID,916.552,VALID,0,VALID,99.6493,VALID,-0.101885,VALID,18.6065,VALID,51,VALID,1.12847,
2002-05-19, 03:33:00,VALID,916.557,VALID,0,VALID,99.662,VALID,-0.101885,VALID,18.5836,VALID,48,VALID,1.18236,
2002-05-19, 03:34:00,VALID,916.555,VALID,0,VALID,99.6658,VALID,-0.101885,VALID,18.5414,VALID,34,VALID,1.1096,